Location: Unspecified
(0.0000°N, 0.0000°E)
Time: 18:44:08
(UTC+00:00)

Vanguard 3 - Pass Details

Date: 25 September 2023
Orbit: 507 x 3241 km, 33.3° (Epoch: 29 November)

Event Time Altitude Azimuth Distance (km) Brightness Sun altitude
Rises 12:29:11 0° 221° (SW) 6,705 11.9 80.6°
Reaches altitude 10° 12:34:17 10° 212° (SSW) 5,934 11.8 79.3°
Maximum altitude 12:51:04 35° 153° (SSE) 4,413 11.3 75.1°
Drops below altitude 10° 13:06:23 10° 94° (E) 5,499 11.3 71.3°
Sets 13:10:45 0° 85° (E) 6,190 11.4 70.2°
